Flag for Austria Weather past 2 weeks in Leoben, Styria, Austria

Now
32 °F

Broken clouds.


Feels Like: 32 °F
Forecast: 24 / 37 °F
Wind: 2 mph from North

Location: Zeltweg

Current Time: Mar 5, 2015 at 8:05:03 AM

Latest Report: Mar 5, 2015 at 7:20 AM


Visibility: 19 mi

Pressure: 30.01 "Hg

Humidity: 69%

Dew point: 23 °F

Location of LeobenLocation

Historic Weather in Leoben — Graph

°F

Leoben temperature yesterday

Maximum temperature yesterday: 46 °F (at 1:20 PM)
Minimum temperature yesterday: 21 °F (at 5:50 AM)
Average temperature yesterday: 37 °F

Past Weeks' High & Low Weather Summary

 TemperatureHumidityPressure
High50 °F (Mar 2, 1:20 PM)100% (Feb 19, 4:50 AM)30.66 "Hg (Feb 19, 4:50 AM)
Low16 °F (Feb 19, 4:50 AM)23% (Mar 3, 4:20 PM)29.56 "Hg (Feb 23, 1:50 PM)
Average37 °F69%29.98 "Hg
* Reported Feb 18 6:50 AM — Mar 5 6:50 AM, Leoben, Weather by CustomWeather, © 2015

Note: Actual official high and low records may vary slightly from our data, if they occured in-between our weather recording intervals... More about our weather records

Advertising

Leoben weather history for previous 24 hours

 ConditionsComfort  
Time TempWeatherWind HumidityBarometerVisibility
6:50 AM
Thu, Mar 5
34 °FSnow flurries. Broken clouds.2 mph60%30.30 "Hg19 mi
5:50 AM34 °FPartly cloudy.8 mph60%30.27 "Hg19 mi
4:50 AM36 °FOvercast.7 mph56%30.27 "Hg19 mi
9:50 PM
Wed, Mar 4
34 °FOvercast.1 mph65%30.24 "Hg19 mi
7:50 PM37 °FOvercast.8 mph56%30.21 "Hg19 mi
6:50 PM37 °FOvercast.5 mph48%30.21 "Hg19 mi
5:50 PM39 °FOvercast.3 mph42%30.21 "Hg25 mi
4:50 PM41 °FPartly sunny.6 mph39%30.18 "Hg31 mi
4:20 PM43 °FBroken clouds.8 mph36%30.15 "Hg31 mi
3:50 PM43 °FBroken clouds.9 mph36%30.15 "Hg31 mi
3:20 PM43 °FBroken clouds.14 mph36%30.15 "Hg31 mi
2:50 PM45 °FPartly sunny.17 mph31%30.15 "Hg37 mi
2:20 PM46 °FPartly sunny.10 mph32%30.15 "Hg37 mi
1:50 PM46 °FPartly sunny.6 mph37%30.15 "Hg37 mi
1:20 PM46 °FBroken clouds.3 mph40%30.15 "Hg37 mi
12:50 PM45 °FScattered clouds.5 mph42%30.15 "Hg37 mi
12:20 PM45 °FScattered clouds.3 mph42%30.18 "Hg37 mi
11:50 AM43 °FScattered clouds.2 mph46%30.18 "Hg37 mi
11:20 AM39 °FPassing clouds.3 mph52%30.18 "Hg37 mi
10:50 AM39 °FPassing clouds.2 mph52%30.18 "Hg37 mi
10:20 AM36 °FPassing clouds.3 mph60%30.18 "Hg25 mi
9:50 AM34 °FPassing clouds.3 mph60%30.18 "Hg25 mi
9:20 AM32 °FScattered clouds.2 mph64%30.18 "Hg25 mi
8:50 AM30 °FScattered clouds.3 mph75%30.18 "Hg25 mi
8:20 AM30 °FScattered clouds.2 mph75%30.18 "Hg25 mi
Weather by CustomWeather, © 2015

See weather overviewHow to use our weather pages